SCP
0 0 0 0 0 0 0 0 0 0 0 0 0 0 0 0 0 0 0 0 0 0 0 0 0 0 0 0 0 0 0 0 0 0 0 0 0 0 0 0 0 0 0
0 0 0 0 0 0 0 0 0 0 0 0 0 0 0 0 0 0 0 0 0 0 0 0 0 0 0 0 0 0 0 0 0 0 0 0 0 0 0 0 0 0 0
0 0 0 0 0 0 0 0 0 0 0 0 0 0 0 0 0 0 0 0 0 0 0 0 0 0 0 0 0 0 0 0 0 0 0 0 0 0 0 0 0 0 0
0 0 0 0 0 0 0 0 0 0 0 0 0 0 0 0 0 0 0 0 0 0 0 0 0 0 0 0 0 0 0 0 0 0 0 0 0 0 0 0 0 0 0
0 0 0 0 0 0 0 0 0 0 0 0 0 0 0 0 0 0 0 0 0 0 0 0 0 0 0 0 0 0 0 0 0 0 0 0 0 0 0 0 0 0 0
0 0 0 0 0 0 0 0 0 0 0 0 0 0 0 0 0 0 0 0 0 0 0 0 0 0 0 0 0 0 0 0 0 0 0 0 0 0 0 0 0 0 0
0 0 0 0 0 0 0 0 0 0 0 0 0 0 0 0 0 0 0 0 0 0 0 0 0 0 0 0 0 0 0 0 0 0 0 0 0 0 0 0 0 0 0
0 0 0 0 0 0 0 0 0 0 0 0 0 0 0 0 0 0 0 0 0 0 0 0 0 0 0 0 0 0 0 0 0 0 0 0 0 0 0 0 0 0 0
0 0 0 0 0 0 0 0 0 0 0 0 0 0 0 0 0 0 0 0 0 0 0 0 0 0 0 0 0 0 0 0 0 0 0 0 0 0 0 0 0 0 0
0 0 0 0 0 0 0 0 0 0 0 0 0 0 0 0 0 0 0 0 0 0 0 0 0 0 0 0 0 0 0 0 0 0 0 0 0 0 0 0 0 0 0
0 0 0 0 0 0 0 0 0 0 0 0 0 0 0 0 0 0 0 0 0 0 0 0 0 0 0 0 0 0 0 0 0 0 0 0 0 0 0 0 0 0 0
0 -0 0 0 0 0 0 0 0 0 0 0 0 0 0 0 0 0 0 0 0 0 0 0 0 0 0 0 0 0 0 0 0 0 0 0 0 0 0 0 0 0 0
0 -0 0 0 0 0 0 0 0 0 0 0 0 0 0 0 0 0 0 0 0 0 0 0 0 0 0 0 0 0 0 0 0 0 0 0 0 0 0 0 0 0 0
0 0 0 0 0 0 0 0 0 0 0 0 0 0 0 0 0 0 0 0 0 0 0 0 0 0 0 0 0 0 0 0 0 0 0 0 0 0 0 0 0 0 0
0 0 0 0 0 0 0 0 0 0 0 0 0 0 0 0 0 0 0 0 0 0 0 0 0 0 0 0 0 0 0 0 0 0 0 0 0 0 0 0 0 0 0
0 0 0 0 0 0 0 0 0 0 0 0 0 0 0 0 0 0 0 0 0 0 0 0 0 0 0 0 0 0 0 0 0 0 0 0 0 0 0 0 0 0 0
0 0 0 0 0 0 0 0 0 0 0 0 0 0 0 0 0 0 0 0 0 0 0 0 0 0 0 0 0 0 0 0 0 0 0 0 0 0 0 0 0 0 0
0 0 0 0 0 0 0 0 0 0 0 0 0 0 0 0 0 0 0 0 0 0 0 0 0 0 0 0 0 0 0 0 0 0 0 0 0 0 0 0 0 0 0
0 0 0 0 0 0 0 0 0 0 0 0 0 0 0 0 0 0 0 0 0 0 0 0 0 0 0 0 0 0 0 0 0 0 0 0 0 0 0 0 0 0 0
0 0 0 0 0 0 0 0 0 0 0 0 0 0 0 0 0 0 0 0 0 0 0 0 0 0 0 0 0 0 0 0 0 0 0 0 0 0 0 0 0 0 0
0 0 0 0 0 0 0 0 0 0 0 0 0 0 0 0 0 0 0 0 0 0 0 0 0 0 0 0 0 0 0 0 0 0 0 0 0 0 0 0 0 0 0
0 0 0 0 0 0 0 0 0 0 0 0 0 0 0 0 0 0 0 0 0 0 0 0 0 0 0 0 0 0 0 0 0 0 0 0 0 0 0 0 0 0 0
0 0 0 0 0 0 0 0 0 0 0 0 0 0 0 0 0 0 0 0 0 0 0 0 0 0 0 0 0 0 0 0 0 0 0 0 0 0 0 0 0 0 0
0 0 0 0 0 0 0 0 0 0 0 0 0 0 0 0 0 0 0 0 0 0 0 0 0 0 0 0 0 0 0 0 0 0 0 0 0 0 0 0 0 0 0
0 0 0 0 0 0 0 0 0 0 0 0 0 0 0 0 0 0 0 0 0 0 0 0 0 0 0 0 0 0 0 0 0 0 -0 -0 -0 -0 0 0 0 0 0
0 0 0 0 0 0 0 0 0 0 0 0 0 0 0 0 0 0 0 0 0 0 0 0 0 0 0 0 0 0 0 0 0 0 -0 -0 -0 0 0 -0 -0 -0 0
Wind_Speed_500mb
50 44 45 45 46 45 50 58 56 54 49 50 52 50 51 51 53 47 46 47 51 49 50 49 48 46 48 50 50 49 50 52 51 55 60 64 66 66 62 56 51 48 45
54 53 48 48 53 50 50 51 55 55 51 51 51 49 47 47 45 48 46 46 51 54 51 50 48 46 48 51 53 54 54 55 54 55 58 52 58 63 44 44 38 40 40
54 50 43 41 35 46 56 59 59 58 53 50 49 49 44 43 45 48 44 41 36 37 55 50 49 48 46 49 51 52 52 56 57 57 49 25 29 46 54 32 26 26 41
33 30 31 38 48 48 50 54 49 50 50 51 53 54 55 51 50 46 36 33 36 34 27 32 39 38 42 45 48 49 49 48 54 56 60 62 64 51 44 49 58 61 54
19 22 28 37 41 46 50 48 52 55 53 52 53 50 49 45 37 23 27 31 31 28 27 29 35 39 39 43 44 46 48 49 50 54 58 60 63 63 66 64 59 65 72
10 13 11 15 19 20 25 32 35 39 43 45 46 47 47 42 35 34 39 35 28 26 28 31 31 33 38 40 43 43 46 48 49 51 54 57 58 63 64 67 69 69 79
8 5 6 2 4 5 4 9 18 22 24 28 31 35 40 40 38 42 42 35 31 32 33 30 28 30 31 32 36 39 43 43 47 49 54 57 60 61 64 68 75 76 75
8 4 3 7 3 1 2 4 7 9 12 17 21 23 24 29 34 34 34 31 26 24 24 26 27 30 33 34 36 38 40 39 41 43 48 52 55 56 59 64 67 70 65
4 8 6 8 8 5 5 8 9 9 9 9 10 10 11 13 14 15 16 17 17 18 19 24 25 26 29 30 33 36 38 42 44 47 49 53 56 58 59 59 61 62 69
2 8 9 9 9 11 12 13 12 10 9 9 10 11 11 12 11 10 9 11 14 17 20 21 23 25 27 29 31 33 35 40 42 44 43 42 46 50 53 55 55 60 61
9 1 9 17 17 18 19 18 15 13 13 13 12 9 5 3 4 7 10 13 16 19 23 26 28 30 31 32 34 35 37 38 40 42 46 50 48 46 44 45 52 55 59
14 18 20 23 27 28 25 23 21 19 18 15 10 3 3 7 10 13 16 20 22 25 28 30 31 33 34 35 36 38 38 40 40 40 40 41 42 48 50 51 49 45 47
27 34 34 38 32 34 38 33 31 27 22 16 9 3 7 16 20 21 22 24 28 31 34 35 36 36 38 40 40 39 40 40 40 39 38 39 40 41 40 45 53 61 69
31 39 38 45 46 40 39 43 43 37 25 19 14 10 12 16 23 26 27 28 32 35 36 37 38 37 38 41 41 40 40 39 39 37 36 36 36 39 42 45 49 54 57
39 45 47 45 51 51 44 44 50 50 43 33 29 23 22 25 27 30 32 36 38 37 36 34 33 34 37 41 42 42 40 40 39 36 36 37 38 36 35 40 45 48 55
45 42 48 56 54 58 52 41 46 55 55 53 45 35 29 33 34 36 37 37 35 32 32 33 35 37 39 43 45 47 45 43 43 43 41 41 41 43 45 40 35 39 46
52 51 54 59 58 54 57 55 47 54 61 60 55 48 37 42 42 40 40 39 34 30 30 33 35 37 40 43 45 43 42 42 42 43 45 45 45 45 51 50 48 41 35
62 58 56 55 52 51 54 59 55 53 61 64 62 54 45 50 46 42 40 37 33 31 31 33 35 37 38 44 47 44 44 41 40 41 41 44 46 47 53 56 55 50 42
48 48 45 52 54 52 52 56 61 58 56 64 63 57 50 51 46 41 38 34 32 30 30 32 33 35 35 38 43 42 43 43 41 42 41 40 42 45 52 59 60 55 48
24 35 50 55 56 54 48 54 60 60 59 59 61 54 51 49 45 41 36 32 30 29 28 28 29 32 32 36 40 39 44 46 45 42 42 43 44 45 47 52 56 61 60
41 47 47 50 55 52 49 47 53 58 60 60 57 55 51 47 42 37 34 30 27 25 24 25 26 30 31 31 36 41 42 46 48 48 48 49 49 49 49 45 48 47 53
45 47 49 52 54 52 47 48 52 54 51 49 49 48 44 40 35 31 28 25 23 22 23 24 25 28 30 34 38 40 43 47 50 48 47 50 51 52 53 50 43 41 46
48 50 51 52 52 47 44 46 44 44 42 39 37 37 36 35 32 28 24 20 18 19 24 28 26 26 29 33 37 38 43 47 50 49 49 47 47 46 47 47 47 46 46
49 50 52 53 46 42 41 39 37 36 34 33 34 34 32 28 24 21 18 15 15 20 22 24 25 25 29 36 42 47 49 53 58 59 57 51 47 45 45 45 46 48 47
52 47 47 50 46 37 37 36 35 34 33 33 32 30 26 22 18 15 11 11 19 22 23 23 26 30 31 35 42 48 51 54 58 62 60 58 56 56 55 52 52 51 49
52 48 45 47 47 39 35 34 33 33 31 28 29 27 22 17 11 6 12 16 19 22 22 25 28 30 35 39 42 46 49 51 55 55 57 56 56 56 58 60 60 58 55
Wind_Direction_500mb
251 256 253 251 245 244 247 244 244 236 239 248 253 251 254 261 273 274 263 253 247 256 263 265 263 259 256 259 264 262 262 266 264 272 273 276 284 285 289 293 292 290 295
260 263 263 261 251 244 243 245 245 247 243 246 252 254 257 260 265 269 274 268 254 246 249 256 258 255 252 259 264 263 261 266 269 269 277 286 291 299 305 313 309 303 297
264 270 264 253 250 249 252 250 246 251 249 249 249 252 250 251 255 260 271 274 271 255 249 248 254 263 262 264 268 268 265 265 273 273 270 278 279 293 298 291 280 290 287
251 252 265 259 252 254 251 244 249 243 238 230 239 247 254 252 258 263 267 262 268 272 257 246 258 269 270 271 272 276 276 270 270 275 275 276 277 283 291 290 290 287 277
270 270 245 244 246 245 247 246 239 240 237 233 233 238 246 254 255 253 242 248 252 261 269 270 269 277 280 281 280 278 278 278 275 274 277 280 285 282 279 283 289 293 297
302 294 287 244 258 259 251 244 235 236 238 240 239 238 241 245 240 231 243 255 261 263 273 278 273 260 260 266 274 276 276 278 278 279 279 280 279 281 285 283 289 292 296
288 295 341 308 270 288 267 239 232 236 234 231 226 223 222 228 225 226 239 243 244 245 253 260 272 280 284 280 275 276 277 276 276 277 280 281 281 284 284 286 287 289 293
275 254 262 285 301 247 208 183 195 206 206 210 217 222 225 229 234 237 239 242 242 249 264 274 279 282 284 285 284 284 284 282 281 278 280 281 282 283 284 283 283 284 283
267 270 282 299 312 283 246 226 211 205 203 198 194 195 202 217 225 233 242 256 274 281 286 285 291 292 290 289 288 285 281 276 276 277 275 277 276 276 277 279 282 284 290
73 290 295 278 276 271 259 256 252 236 228 222 220 218 219 223 233 245 264 281 291 299 302 305 306 304 304 303 301 298 294 290 288 283 280 280 282 283 284 282 282 281 286
60 3 322 323 312 291 276 264 248 229 215 209 205 197 198 230 299 309 309 309 310 312 312 311 310 311 311 309 308 305 303 303 297 290 286 281 279 280 283 289 291 289 285
18 357 336 330 323 308 282 266 251 235 220 208 194 194 322 321 312 309 310 311 311 311 310 310 310 310 309 310 310 310 309 307 306 304 300 296 292 285 277 275 279 285 292
335 338 326 319 306 300 290 269 252 238 231 219 204 226 329 320 312 309 307 308 311 313 312 311 311 312 312 310 311 311 312 312 313 312 312 312 311 308 299 284 276 272 271
317 308 305 306 305 301 291 273 252 243 235 223 225 252 282 293 293 293 295 304 306 306 307 307 308 309 308 309 310 312 314 316 319 321 320 320 317 312 311 309 303 298 297
295 291 295 298 298 294 293 279 257 248 243 243 245 251 270 280 284 290 294 295 294 296 300 301 303 306 306 306 307 309 313 315 316 319 322 323 321 317 311 310 312 311 305
277 280 283 291 295 295 291 283 271 252 248 248 249 253 267 274 276 280 282 284 286 290 293 297 300 303 305 306 307 310 312 313 314 316 317 318 319 317 316 314 301 300 311
281 279 278 281 289 288 291 284 276 261 252 251 252 253 261 264 264 267 274 276 277 280 286 293 299 302 303 303 304 307 310 312 312 313 314 314 314 315 312 311 313 309 301
279 280 286 288 288 286 283 284 278 267 256 252 249 249 254 256 254 256 260 261 263 269 279 287 293 297 300 302 304 308 309 310 311 312 314 314 315 315 312 314 315 315 314
287 287 293 293 290 284 276 276 274 273 263 254 250 249 253 253 249 250 250 250 256 268 278 287 293 297 301 303 306 312 311 311 311 314 318 321 320 321 323 321 316 315 316
302 305 303 292 290 289 282 272 269 264 262 254 250 250 252 248 243 245 244 247 257 269 281 291 298 303 309 310 313 317 315 314 316 317 320 322 323 324 329 329 330 326 323
302 310 302 296 293 286 278 266 258 256 254 250 251 250 244 240 239 239 240 246 256 269 282 294 302 307 312 314 312 315 317 319 322 325 326 324 326 325 326 328 327 326 326
308 302 300 294 288 285 273 259 254 254 251 249 245 241 238 238 237 238 245 253 264 278 294 305 308 311 314 315 315 322 324 326 326 330 330 328 327 325 324 323 322 320 320
303 301 291 287 283 277 265 258 253 250 250 246 239 234 231 231 234 239 248 263 280 301 308 309 310 315 315 314 317 320 321 320 321 325 327 327 325 323 321 322 324 321 321
292 296 286 276 269 266 258 250 247 240 236 232 229 226 227 229 232 241 251 270 294 295 301 302 308 312 313 314 316 317 322 322 323 325 328 330 329 328 326 323 322 322 321
290 288 280 269 257 249 248 244 238 232 226 220 220 220 220 224 227 233 256 289 291 290 291 298 310 313 313 312 314 319 322 324 323 325 326 329 329 330 329 328 326 324 320
289 279 266 257 251 241 232 225 223 222 217 217 213 213 215 216 232 266 270 277 288 297 304 313 316 315 318 326 323 322 328 326 324 326 326 327 328 329 329 329 328 328 326
Wind_Speed_850mb
50 44 45 45 46 45 50 58 56 54 49 50 52 50 51 51 53 47 46 47 51 49 50 49 48 46 48 50 50 49 50 52 51 55 60 64 66 66 62 56 51 48 45
54 53 48 48 53 50 50 51 55 55 51 51 51 49 47 47 45 48 46 46 51 54 51 50 48 46 48 51 53 54 54 55 54 55 58 52 58 63 44 44 38 40 40
54 50 43 41 35 46 56 59 59 58 53 50 49 49 44 43 45 48 44 41 36 37 55 50 49 48 46 49 51 52 52 56 57 57 49 25 29 46 54 32 26 26 41
33 30 31 38 48 48 50 54 49 50 50 51 53 54 55 51 50 46 36 33 36 34 27 32 39 38 42 45 48 49 49 48 54 56 60 62 64 51 44 49 58 61 54
19 22 28 37 41 46 50 48 52 55 53 52 53 50 49 45 37 23 27 31 31 28 27 29 35 39 39 43 44 46 48 49 50 54 58 60 63 63 66 64 59 65 72
10 13 11 15 19 20 25 32 35 39 43 45 46 47 47 42 35 34 39 35 28 26 28 31 31 33 38 40 43 43 46 48 49 51 54 57 58 63 64 67 69 69 79
8 5 6 2 4 5 4 9 18 22 24 28 31 35 40 40 38 42 42 35 31 32 33 30 28 30 31 32 36 39 43 43 47 49 54 57 60 61 64 68 75 76 75
8 4 3 7 3 1 2 4 7 9 12 17 21 23 24 29 34 34 34 31 26 24 24 26 27 30 33 34 36 38 40 39 41 43 48 52 55 56 59 64 67 70 65
4 8 6 8 8 5 5 8 9 9 9 9 10 10 11 13 14 15 16 17 17 18 19 24 25 26 29 30 33 36 38 42 44 47 49 53 56 58 59 59 61 62 69
2 8 9 9 9 11 12 13 12 10 9 9 10 11 11 12 11 10 9 11 14 17 20 21 23 25 27 29 31 33 35 40 42 44 43 42 46 50 53 55 55 60 61
9 1 9 17 17 18 19 18 15 13 13 13 12 9 5 3 4 7 10 13 16 19 23 26 28 30 31 32 34 35 37 38 40 42 46 50 48 46 44 45 52 55 59
14 18 20 23 27 28 25 23 21 19 18 15 10 3 3 7 10 13 16 20 22 25 28 30 31 33 34 35 36 38 38 40 40 40 40 41 42 48 50 51 49 45 47
27 34 34 38 32 34 38 33 31 27 22 16 9 3 7 16 20 21 22 24 28 31 34 35 36 36 38 40 40 39 40 40 40 39 38 39 40 41 40 45 53 61 69
31 39 38 45 46 40 39 43 43 37 25 19 14 10 12 16 23 26 27 28 32 35 36 37 38 37 38 41 41 40 40 39 39 37 36 36 36 39 42 45 49 54 57
39 45 47 45 51 51 44 44 50 50 43 33 29 23 22 25 27 30 32 36 38 37 36 34 33 34 37 41 42 42 40 40 39 36 36 37 38 36 35 40 45 48 55
45 42 48 56 54 58 52 41 46 55 55 53 45 35 29 33 34 36 37 37 35 32 32 33 35 37 39 43 45 47 45 43 43 43 41 41 41 43 45 40 35 39 46
52 51 54 59 58 54 57 55 47 54 61 60 55 48 37 42 42 40 40 39 34 30 30 33 35 37 40 43 45 43 42 42 42 43 45 45 45 45 51 50 48 41 35
62 58 56 55 52 51 54 59 55 53 61 64 62 54 45 50 46 42 40 37 33 31 31 33 35 37 38 44 47 44 44 41 40 41 41 44 46 47 53 56 55 50 42
48 48 45 52 54 52 52 56 61 58 56 64 63 57 50 51 46 41 38 34 32 30 30 32 33 35 35 38 43 42 43 43 41 42 41 40 42 45 52 59 60 55 48
24 35 50 55 56 54 48 54 60 60 59 59 61 54 51 49 45 41 36 32 30 29 28 28 29 32 32 36 40 39 44 46 45 42 42 43 44 45 47 52 56 61 60
41 47 47 50 55 52 49 47 53 58 60 60 57 55 51 47 42 37 34 30 27 25 24 25 26 30 31 31 36 41 42 46 48 48 48 49 49 49 49 45 48 47 53
45 47 49 52 54 52 47 48 52 54 51 49 49 48 44 40 35 31 28 25 23 22 23 24 25 28 30 34 38 40 43 47 50 48 47 50 51 52 53 50 43 41 46
48 50 51 52 52 47 44 46 44 44 42 39 37 37 36 35 32 28 24 20 18 19 24 28 26 26 29 33 37 38 43 47 50 49 49 47 47 46 47 47 47 46 46
49 50 52 53 46 42 41 39 37 36 34 33 34 34 32 28 24 21 18 15 15 20 22 24 25 25 29 36 42 47 49 53 58 59 57 51 47 45 45 45 46 48 47
52 47 47 50 46 37 37 36 35 34 33 33 32 30 26 22 18 15 11 11 19 22 23 23 26 30 31 35 42 48 51 54 58 62 60 58 56 56 55 52 52 51 49
52 48 45 47 47 39 35 34 33 33 31 28 29 27 22 17 11 6 12 16 19 22 22 25 28 30 35 39 42 46 49 51 55 55 57 56 56 56 58 60 60 58 55
Wind_Direction_850mb
251 256 253 251 245 244 247 244 244 236 239 248 253 251 254 261 273 274 263 253 247 256 263 265 263 259 256 259 264 262 262 266 264 272 273 276 284 285 289 293 292 290 295
260 263 263 261 251 244 243 245 245 247 243 246 252 254 257 260 265 269 274 268 254 246 249 256 258 255 252 259 264 263 261 266 269 269 277 286 291 299 305 313 309 303 297
264 270 264 253 250 249 252 250 246 251 249 249 249 252 250 251 255 260 271 274 271 255 249 248 254 263 262 264 268 268 265 265 273 273 270 278 279 293 298 291 280 290 287
251 252 265 259 252 254 251 244 249 243 238 230 239 247 254 252 258 263 267 262 268 272 257 246 258 269 270 271 272 276 276 270 270 275 275 276 277 283 291 290 290 287 277
270 270 245 244 246 245 247 246 239 240 237 233 233 238 246 254 255 253 242 248 252 261 269 270 269 277 280 281 280 278 278 278 275 274 277 280 285 282 279 283 289 293 297
302 294 287 244 258 259 251 244 235 236 238 240 239 238 241 245 240 231 243 255 261 263 273 278 273 260 260 266 274 276 276 278 278 279 279 280 279 281 285 283 289 292 296
288 295 341 308 270 288 267 239 232 236 234 231 226 223 222 228 225 226 239 243 244 245 253 260 272 280 284 280 275 276 277 276 276 277 280 281 281 284 284 286 287 289 293
275 254 262 285 301 247 208 183 195 206 206 210 217 222 225 229 234 237 239 242 242 249 264 274 279 282 284 285 284 284 284 282 281 278 280 281 282 283 284 283 283 284 283
267 270 282 299 312 283 246 226 211 205 203 198 194 195 202 217 225 233 242 256 274 281 286 285 291 292 290 289 288 285 281 276 276 277 275 277 276 276 277 279 282 284 290
73 290 295 278 276 271 259 256 252 236 228 222 220 218 219 223 233 245 264 281 291 299 302 305 306 304 304 303 301 298 294 290 288 283 280 280 282 283 284 282 282 281 286
60 3 322 323 312 291 276 264 248 229 215 209 205 197 198 230 299 309 309 309 310 312 312 311 310 311 311 309 308 305 303 303 297 290 286 281 279 280 283 289 291 289 285
18 357 336 330 323 308 282 266 251 235 220 208 194 194 322 321 312 309 310 311 311 311 310 310 310 310 309 310 310 310 309 307 306 304 300 296 292 285 277 275 279 285 292
335 338 326 319 306 300 290 269 252 238 231 219 204 226 329 320 312 309 307 308 311 313 312 311 311 312 312 310 311 311 312 312 313 312 312 312 311 308 299 284 276 272 271
317 308 305 306 305 301 291 273 252 243 235 223 225 252 282 293 293 293 295 304 306 306 307 307 308 309 308 309 310 312 314 316 319 321 320 320 317 312 311 309 303 298 297
295 291 295 298 298 294 293 279 257 248 243 243 245 251 270 280 284 290 294 295 294 296 300 301 303 306 306 306 307 309 313 315 316 319 322 323 321 317 311 310 312 311 305
277 280 283 291 295 295 291 283 271 252 248 248 249 253 267 274 276 280 282 284 286 290 293 297 300 303 305 306 307 310 312 313 314 316 317 318 319 317 316 314 301 300 311
281 279 278 281 289 288 291 284 276 261 252 251 252 253 261 264 264 267 274 276 277 280 286 293 299 302 303 303 304 307 310 312 312 313 314 314 314 315 312 311 313 309 301
279 280 286 288 288 286 283 284 278 267 256 252 249 249 254 256 254 256 260 261 263 269 279 287 293 297 300 302 304 308 309 310 311 312 314 314 315 315 312 314 315 315 314
287 287 293 293 290 284 276 276 274 273 263 254 250 249 253 253 249 250 250 250 256 268 278 287 293 297 301 303 306 312 311 311 311 314 318 321 320 321 323 321 316 315 316
302 305 303 292 290 289 282 272 269 264 262 254 250 250 252 248 243 245 244 247 257 269 281 291 298 303 309 310 313 317 315 314 316 317 320 322 323 324 329 329 330 326 323
302 310 302 296 293 286 278 266 258 256 254 250 251 250 244 240 239 239 240 246 256 269 282 294 302 307 312 314 312 315 317 319 322 325 326 324 326 325 326 328 327 326 326
308 302 300 294 288 285 273 259 254 254 251 249 245 241 238 238 237 238 245 253 264 278 294 305 308 311 314 315 315 322 324 326 326 330 330 328 327 325 324 323 322 320 320
303 301 291 287 283 277 265 258 253 250 250 246 239 234 231 231 234 239 248 263 280 301 308 309 310 315 315 314 317 320 321 320 321 325 327 327 325 323 321 322 324 321 321
292 296 286 276 269 266 258 250 247 240 236 232 229 226 227 229 232 241 251 270 294 295 301 302 308 312 313 314 316 317 322 322 323 325 328 330 329 328 326 323 322 322 321
290 288 280 269 257 249 248 244 238 232 226 220 220 220 220 224 227 233 256 289 291 290 291 298 310 313 313 312 314 319 322 324 323 325 326 329 329 330 329 328 326 324 320
289 279 266 257 251 241 232 225 223 222 217 217 213 213 215 216 232 266 270 277 288 297 304 313 316 315 318 326 323 322 328 326 324 326 326 327 328 329 329 329 328 328 326